GFSFLT2_850_spd_000.txt.gz
Wind_Speed
3 3 6 8 8 6 3 1 1 2 3 3 2 2 1 3 3 5 7 7 6 6 6 8 8 10 13 16 18 25 23 18
2 4 7 10 11 9 7 1 1 1 2 3 3 4 3 1 3 5 7 8 7 7 7 8 9 11 12 13 18 19 18 19
6 6 9 10 9 8 7 4 1 2 1 1 3 4 2 3 4 4 4 4 7 9 9 10 13 14 11 13 15 17 19 19
5 4 9 9 9 6 6 6 7 6 4 4 3 3 3 4 5 5 6 7 7 7 9 10 10 14 14 14 15 16 17 19
6 5 12 8 7 6 7 8 7 8 5 7 6 6 7 9 9 8 9 9 8 7 7 9 12 15 18 17 20 19 17 17
7 12 13 7 5 6 8 10 9 9 8 7 8 6 8 10 12 12 11 11 12 12 11 10 10 12 12 13 18 23 18 18
9 13 13 10 7 7 9 11 12 13 13 13 14 14 13 12 12 13 14 13 13 14 15 15 15 16 16 16 15 15 20 27
16 14 13 12 9 9 10 12 16 17 16 17 17 16 15 14 15 16 16 15 15 14 13 14 14 15 16 17 19 19 20 20
13 12 13 16 15 12 12 15 17 18 18 18 17 15 16 17 18 17 17 16 15 14 13 12 13 14 16 15 17 19 21 23
12 13 15 19 18 16 17 18 17 19 19 19 19 18 17 18 18 16 16 15 15 14 11 11 12 15 16 18 20 19 20 22
12 12 16 19 18 20 21 20 20 21 23 23 22 20 17 18 18 16 13 12 12 12 11 12 14 14 16 17 19 23 24 23
10 14 15 16 19 20 21 22 23 22 22 25 25 24 21 19 18 17 14 14 14 13 11 13 13 15 18 20 20 20 21 20
10 11 12 16 16 17 19 22 23 24 26 26 23 24 27 23 20 19 18 16 13 13 13 14 12 14 20 23 23 22 24 27
8 9 10 13 14 17 19 23 25 27 25 23 26 29 29 27 26 26 22 18 18 17 17 14 11 13 17 20 20 34 28 27
5 6 11 14 16 16 20 24 28 31 32 32 30 29 34 31 31 29 27 23 22 21 21 16 15 12 12 14 18 19 39 32
7 8 12 14 20 22 25 27 30 31 32 33 31 33 30 32 30 29 26 24 23 21 20 17 16 16 17 17 21 25 32 34
7 10 14 16 20 24 29 33 38 37 37 36 36 34 36 30 30 33 32 30 24 19 16 18 19 16 16 21 25 30 34 36
4 5 9 14 20 26 28 33 36 37 38 41 43 38 39 31 30 36 31 29 30 29 27 23 23 24 24 30 33 32 32 33
10 17 24 29 35 33 36 42 36 33 33 30 38 39 31 30 30 28 26 21 19 18 23 24 24 28 34 27 30 32 31 31
18 20 25 29 31 37 40 32 34 36 34 32 33 35 26 27 23 20 15 15 20 19 23 30 35 23 26 29 32 33 34 33

GFSFLT2_850_spd_003.txt.gz
Wind_Speed
0 2 6 8 10 7 4 4 5 5 3 4 5 5 5 5 5 6 6 5 6 8 10 11 10 10 12 14 16 23 23 20
2 5 6 8 9 7 6 6 5 4 3 5 6 7 6 5 6 7 7 7 6 8 9 11 11 11 11 12 13 12 13 18
4 5 6 10 12 9 6 5 3 5 4 5 6 6 6 5 6 7 8 8 7 8 9 10 11 13 11 12 15 16 15 15
5 4 7 8 8 7 5 4 6 7 7 7 7 7 7 7 8 9 10 10 10 9 9 10 10 12 13 14 15 17 17 17
7 4 8 9 8 7 6 7 7 7 8 9 9 9 9 11 12 13 13 12 12 12 12 11 9 11 13 15 18 19 20 22
8 7 9 12 11 9 9 10 10 10 10 10 10 11 12 13 15 15 16 15 15 15 15 16 17 16 14 15 15 15 18 23
10 7 11 12 13 11 10 11 12 14 14 13 14 15 16 17 17 16 16 17 16 16 16 17 19 21 20 18 15 15 16 15
8 8 10 11 12 11 11 12 13 16 16 15 16 18 18 18 18 19 19 18 18 16 15 16 16 16 15 16 17 16 16 17
8 9 9 10 11 11 11 12 14 16 16 17 18 18 18 18 19 19 20 20 19 18 17 15 13 13 13 14 15 17 19 19
8 8 8 13 14 14 15 16 17 18 19 20 20 19 18 19 18 19 20 20 20 20 18 16 15 15 15 15 16 18 19 20
9 7 8 10 13 15 16 17 18 18 20 22 22 22 23 21 19 19 19 19 19 18 18 19 18 16 16 15 16 18 19 19
7 6 6 7 8 11 13 17 19 20 20 20 22 25 26 25 23 21 19 20 21 20 20 20 20 18 17 17 18 19 19 18
4 4 6 4 8 10 13 16 19 22 24 24 24 24 25 27 28 27 24 24 24 23 22 22 21 18 18 17 20 23 22 24
4 6 8 9 12 14 16 19 21 24 26 28 30 30 29 29 30 33 31 30 29 29 28 26 24 21 18 17 16 25 26 29
8 10 11 12 14 17 21 24 26 28 30 34 35 37 37 35 36 38 37 36 35 34 32 30 29 25 21 16 6 7 26 28
10 12 14 14 17 19 22 26 30 30 31 35 35 36 39 41 40 38 40 38 35 33 32 32 32 29 22 17 15 15 12 25
11 13 13 14 14 19 26 31 33 36 39 36 34 32 34 39 43 40 40 37 32 33 32 27 25 22 18 17 17 18 23 24
7 5 8 15 22 28 32 35 39 41 37 32 31 32 31 32 37 41 37 34 27 24 21 20 16 11 13 14 18 19 22 26
11 16 20 25 29 34 35 39 37 32 34 37 37 33 32 32 29 35 31 28 33 31 21 15 16 16 18 21 22 28 26 26
20 26 31 35 37 36 32 30 31 32 35 35 35 30 27 22 20 23 24 29 22 14 17 22 25 27 30 26 22 25 25 25

GFSFLT2_850_spd_006.txt.gz
Wind_Speed
4 5 4 5 7 6 5 5 4 5 6 5 5 6 7 8 8 8 7 7 8 9 10 10 11 11 11 11 11 11 12 17
3 4 5 8 11 11 7 6 4 3 4 6 7 7 8 8 9 9 9 9 8 9 10 10 10 11 12 12 12 12 10 11
1 3 5 10 11 11 7 5 2 4 6 7 8 8 8 8 8 9 11 12 11 10 10 11 10 10 11 11 12 14 13 13
2 3 3 8 7 7 6 5 4 4 6 8 9 10 9 9 10 11 13 14 15 14 13 11 11 12 12 13 14 15 15 14
6 5 5 8 7 5 5 6 6 6 7 9 10 12 12 12 13 15 16 16 16 16 17 16 13 12 11 11 13 16 18 19
9 6 6 8 9 8 8 9 8 8 9 11 11 12 13 15 17 18 18 17 18 18 18 18 17 17 17 17 17 16 15 15
10 6 5 8 9 10 10 10 11 12 13 14 15 15 16 18 19 19 20 20 20 19 18 17 18 18 17 16 15 15 14 14
12 7 4 6 9 10 10 11 12 14 15 15 16 17 18 19 19 19 20 21 21 21 19 17 17 17 17 17 15 14 14 14
13 8 4 6 9 9 10 11 13 14 14 14 16 18 18 19 19 20 19 21 22 22 21 20 19 17 16 16 15 15 15 15
14 9 4 8 8 10 10 12 14 15 16 17 17 17 18 19 20 19 17 19 20 21 21 21 20 18 18 17 16 14 14 15
13 6 5 5 7 8 10 11 12 14 17 20 21 22 21 22 22 20 19 19 19 21 22 21 21 21 21 20 17 14 13 14
11 4 4 6 4 6 7 10 11 13 16 19 21 24 26 27 27 25 24 23 23 23 23 23 23 24 23 23 21 18 13 15
4 3 3 4 7 10 12 14 15 18 21 23 24 27 31 33 34 32 30 30 28 26 25 27 27 27 27 28 26 22 18 18
4 5 8 8 10 14 17 20 22 23 25 27 30 31 32 35 38 39 38 37 35 33 32 32 32 32 30 31 28 22 27 26
6 8 11 13 16 18 20 21 22 27 27 26 27 32 33 35 34 39 43 43 42 40 39 38 37 36 34 28 13 18 24 23
10 12 14 15 14 14 18 24 29 31 34 36 36 31 29 30 31 31 36 45 49 47 44 41 39 38 36 32 31 30 21 19
8 7 7 9 13 20 24 29 32 34 35 33 31 32 33 34 34 35 34 35 45 50 43 39 36 33 30 24 22 19 16 13
4 7 12 18 23 28 31 30 31 33 35 36 38 39 39 38 36 34 36 35 37 36 38 31 26 25 18 15 11 7 8 9
13 20 24 27 29 30 30 30 30 33 37 39 39 38 38 37 33 29 28 23 25 27 27 28 26 22 17 14 17 18 21 20
23 26 29 30 28 27 26 27 32 37 39 40 37 34 35 31 29 18 18 20 19 13 10 10 13 16 23 26 26 25 19 15

GFSFLT2_850_spd_009.txt.gz
Wind_Speed
9 7 6 6 5 4 2 1 2 2 4 4 5 7 8 9 9 9 10 10 11 9 10 11 12 12 10 10 9 8 8 10
6 5 4 5 6 6 4 3 2 0 2 4 5 7 8 9 9 9 10 11 12 11 11 12 12 12 11 11 11 9 7 7
4 2 2 6 6 6 4 4 2 3 4 5 6 7 8 9 9 10 12 13 14 14 14 13 12 12 12 13 12 12 11 10
4 2 2 6 6 5 4 3 3 4 6 7 8 9 10 10 11 12 13 15 16 16 16 16 14 12 11 11 12 13 14 14
4 3 2 4 5 5 3 3 4 5 7 8 10 11 12 13 14 16 17 19 19 18 19 19 18 15 14 14 14 15 15 15
7 7 3 2 4 7 6 6 6 7 9 10 12 13 13 14 16 18 19 20 20 19 19 19 19 19 18 15 14 14 14 14
10 10 6 3 5 7 6 6 7 9 10 11 12 13 14 16 18 18 19 20 20 20 20 19 19 18 17 16 14 12 10 10
12 12 7 3 6 6 6 6 6 8 10 11 12 14 16 18 18 18 18 19 20 21 21 20 19 19 18 17 16 14 12 10
14 13 8 4 4 5 5 6 6 8 10 12 13 13 15 17 19 19 20 20 20 21 20 20 20 19 18 17 17 16 15 13
16 14 8 4 3 3 4 6 7 9 12 14 16 18 20 21 21 21 20 21 22 22 21 22 21 20 18 18 18 18 16 14
16 12 6 5 3 3 3 5 8 9 10 12 14 17 19 23 25 26 26 25 25 24 23 22 22 22 22 21 21 20 19 17
13 10 7 5 4 6 7 9 10 12 15 18 21 22 24 26 28 30 30 31 31 29 29 28 26 24 25 25 24 24 23 22
9 7 7 6 8 9 10 12 14 17 20 21 24 25 26 27 29 32 34 37 39 39 35 33 31 30 28 28 29 29 27 26
9 10 10 11 12 14 16 17 18 20 22 25 27 28 30 33 33 34 34 36 37 40 43 42 40 37 34 25 20 22 24 26
8 9 10 12 13 13 13 15 18 23 28 32 33 30 28 28 29 31 33 33 34 36 40 46 48 44 41 33 18 22 17 20
7 6 5 5 9 14 18 23 26 27 28 28 29 28 31 32 34 34 34 35 38 37 37 41 44 45 40 44 40 36 22 22
3 4 7 13 19 23 26 27 27 28 30 35 36 37 36 37 36 35 35 34 36 37 39 39 38 41 41 33 31 34 29 21
4 10 17 23 27 29 28 26 28 32 35 39 41 41 41 40 38 34 32 30 29 29 29 24 16 24 29 27 27 23 19 11
17 22 26 29 31 30 27 27 29 33 37 41 45 45 41 37 33 29 26 24 21 15 12 15 14 11 10 11 10 11 16 16
24 27 28 28 26 24 25 27 31 38 43 44 44 41 37 30 26 22 16 11 6 6 10 9 6 10 13 15 13 12 12 13

GFSFLT2_850_spd_015.txt.gz
Wind_Speed
7 6 6 6 6 6 4 3 3 4 5 5 6 7 8 9 9 9 10 11 12 14 14 14 14 13 13 12 11 10 5 8
8 6 3 3 7 6 3 4 3 3 5 6 8 9 11 10 10 10 12 13 14 15 16 15 15 15 14 13 12 9 6 7
7 3 3 3 3 6 6 5 5 6 9 9 9 7 8 8 15 12 13 14 15 17 17 17 16 14 15 14 12 5 8 7
6 5 2 2 3 3 2 2 2 2 3 5 7 8 8 12 12 17 17 16 18 16 17 17 13 8 14 16 10 11 11 10
7 5 2 2 2 3 2 3 4 4 7 7 7 9 8 10 10 12 13 16 12 14 14 12 11 12 11 11 12 11 10 11
7 5 4 1 1 3 2 3 3 4 5 8 8 8 9 10 10 12 12 12 14 13 13 14 14 13 13 13 11 11 9 11
6 7 7 4 2 2 3 2 2 3 3 5 6 6 9 10 11 12 13 14 14 14 15 14 14 15 14 13 12 12 12 11
9 9 8 6 3 4 2 2 2 3 2 3 6 7 8 10 11 12 13 14 15 16 16 16 15 14 15 15 14 13 13 13
8 10 10 8 4 3 2 3 3 3 3 5 7 9 9 12 13 14 15 17 19 19 19 19 19 18 17 18 16 16 14 14
9 10 11 9 6 5 4 4 4 4 6 7 9 9 13 17 15 16 17 20 20 21 21 21 21 21 21 20 18 19 18 18
9 10 9 7 6 4 5 6 5 7 8 9 10 11 13 17 19 20 21 21 23 22 23 23 24 24 25 25 24 22 21 20
5 7 7 7 5 5 6 7 8 8 9 10 11 12 13 17 18 21 22 20 21 23 25 25 28 29 29 30 30 28 26 25
5 6 9 3 3 4 6 7 10 11 11 13 12 13 18 18 17 18 19 20 22 25 26 26 28 28 30 31 33 33 34 32
5 3 2 1 3 3 7 10 9 11 11 13 14 16 21 21 19 19 20 22 26 27 28 29 30 28 29 31 33 33 33 36
6 4 4 2 1 5 6 9 12 15 16 18 17 20 21 21 22 23 23 23 25 26 27 27 31 31 29 31 31 33 30 31
6 4 3 5 7 6 13 12 15 17 17 18 20 21 22 22 24 24 25 25 24 25 24 26 26 31 29 30 33 35 37 38
4 4 6 7 8 14 13 12 14 16 17 20 22 20 21 23 23 24 25 26 22 21 20 19 18 21 22 23 25 29 27 22
6 7 9 11 11 11 13 14 15 18 19 21 20 22 23 23 24 25 24 19 18 17 17 17 17 16 20 20 18 15 20 15
9 11 13 14 14 15 16 16 17 18 20 21 25 26 27 25 24 19 17 15 16 16 13 8 12 20 23 20 17 17 17 16
12 14 16 17 18 18 18 17 17 18 19 24 24 25 26 23 20 16 19 18 12 14 15 17 26 30 20 18 18 13 12 12

GFSFLT2_850_spd_018.txt.gz
Wind_Speed
12 10 9 9 9 7 6 6 7 6 7 8 9 9 11 10 10 8 10 11 12 13 14 15 14 14 14 13 11 11 6 1
6 8 10 7 8 8 7 7 8 9 10 12 13 12 17 15 14 18 16 15 15 17 17 18 16 15 13 13 13 6 5 6
7 7 5 4 6 9 7 9 10 10 11 14 12 12 11 15 16 19 18 18 18 15 18 18 14 9 12 14 13 5 6 7
10 4 3 8 4 8 9 10 7 6 7 7 5 9 7 12 13 17 17 20 18 15 19 17 13 10 11 12 10 10 16 11
10 10 6 8 3 7 4 5 2 4 2 7 5 10 4 6 8 12 16 17 15 20 17 17 15 23 15 15 16 17 12 10
10 6 5 6 5 3 5 3 1 2 4 5 6 3 5 6 6 10 10 11 14 15 16 16 18 17 20 20 17 15 13 12
14 13 7 2 1 2 1 5 3 4 1 7 7 7 9 9 10 10 10 12 14 15 18 18 18 18 17 17 20 18 17 17
13 12 8 5 4 6 2 1 0 3 2 7 8 8 10 12 14 14 14 13 16 22 20 22 23 22 20 16 20 23 21 19
15 8 12 6 5 4 2 5 4 2 4 10 11 10 11 13 17 18 17 17 22 26 21 22 23 23 24 24 22 23 24 22
3 8 5 7 4 4 3 5 7 3 7 8 11 11 14 17 18 18 19 22 27 28 28 25 24 26 27 26 26 27 25 25
4 4 4 4 7 3 6 9 7 3 10 8 12 12 12 20 21 21 23 27 29 28 25 24 25 26 28 28 28 27 29 28
2 6 8 12 5 6 5 7 7 7 7 11 17 18 15 18 22 21 21 26 27 24 25 28 31 32 32 32 33 34 33 33
7 11 7 4 2 5 6 5 7 7 9 14 16 15 23 26 27 24 24 26 25 26 30 32 33 29 31 32 33 33 33 34
6 3 4 6 0 3 6 7 9 11 12 8 13 24 24 26 24 25 24 26 29 30 25 27 28 25 27 31 33 33 29 31
8 6 5 3 3 2 5 9 9 11 16 23 26 19 23 23 20 23 26 27 30 33 31 26 29 26 23 24 29 29 28 28
6 6 4 6 8 7 10 8 11 15 15 16 19 21 20 20 24 26 28 30 32 33 23 25 28 28 29 25 26 28 21 27
4 4 6 9 14 14 15 17 17 16 17 20 20 18 22 28 26 28 31 33 23 21 19 18 19 18 19 28 31 32 32 23
7 8 9 11 12 16 14 14 15 16 17 18 18 24 31 29 27 27 23 20 20 23 25 27 28 29 23 23 29 27 26 26
9 10 12 13 14 12 12 14 14 15 17 21 27 28 25 27 23 19 19 23 26 28 27 26 25 22 25 22 20 21 22 22
11 10 12 14 15 14 13 14 14 16 20 26 24 24 22 20 25 25 24 20 18 22 19 21 20 26 26 17 16 13 11 14

GFSFLT2_850_spd_021.txt.gz
Wind_Speed
14 11 9 9 10 10 10 12 12 11 11 11 11 11 12 14 14 14 14 14 14 14 15 16 14 13 12 12 12 9 3 2
10 8 9 11 12 10 11 12 11 12 13 12 11 11 12 15 13 16 16 17 17 13 17 16 12 9 9 11 12 4 5 6
10 8 8 8 12 14 12 9 9 9 9 10 8 8 8 12 13 14 15 15 14 16 20 16 14 12 15 14 10 6 9 9
11 4 7 8 8 7 7 9 9 9 9 8 5 7 7 9 9 9 13 12 14 16 18 18 17 21 21 18 16 15 16 14
14 5 12 9 6 6 7 9 6 3 4 4 5 3 0 4 6 9 10 12 14 16 17 19 19 20 21 24 22 16 16 17
14 7 8 10 7 9 9 10 6 3 3 4 3 2 4 5 6 9 11 10 12 13 16 21 20 19 21 22 23 23 21 16
18 13 10 7 6 6 9 10 6 7 8 3 4 5 6 6 10 11 12 13 15 17 20 25 22 21 21 21 21 22 22 21
20 14 12 2 7 4 4 9 6 5 5 6 7 7 7 8 10 12 13 15 16 20 23 27 25 24 24 22 23 24 26 25
24 18 14 18 12 8 6 7 4 6 7 9 12 12 11 11 13 14 16 18 21 23 27 28 27 27 25 24 24 24 26 29
17 11 4 10 11 7 6 7 10 5 7 9 7 8 13 14 18 20 20 20 24 27 28 27 26 26 27 28 27 26 27 30
9 5 2 9 11 8 7 9 9 6 7 9 8 10 12 16 21 22 24 25 27 28 27 25 27 29 31 34 34 32 30 32
8 6 10 9 9 6 5 5 4 4 4 7 11 16 20 21 27 25 27 28 28 29 30 30 32 35 35 34 33 32 31 29
7 8 6 4 4 5 5 5 3 5 9 11 11 12 17 24 24 21 24 29 26 29 32 33 32 30 35 36 35 33 32 27
6 3 1 3 3 3 4 5 3 4 6 6 9 12 15 18 21 26 27 25 29 30 31 34 36 27 27 29 28 32 30 24
3 4 4 1 2 3 5 8 10 12 14 19 21 23 23 23 27 25 25 31 31 32 33 30 26 28 26 23 19 18 31 32
8 8 12 15 16 17 16 16 15 14 15 18 21 24 25 26 26 29 34 29 29 27 21 22 25 26 24 24 24 27 17 26
6 6 12 14 16 17 17 12 12 13 16 20 22 22 25 27 29 27 26 22 20 22 21 25 28 30 29 28 31 31 29 29
5 2 5 11 7 5 9 12 15 18 22 26 28 30 30 27 21 23 23 26 26 27 28 29 29 27 27 26 25 24 22 20
1 7 8 10 15 18 16 16 19 20 22 25 29 29 24 26 27 30 29 25 26 27 25 27 24 26 27 28 25 21 18 14
9 13 14 15 14 15 18 20 19 20 22 26 27 21 22 22 32 28 23 25 24 22 24 27 26 28 27 19 21 20 19 16

GFSFLT2_850_spd_024.txt.gz
Wind_Speed
15 12 11 10 9 10 11 12 10 10 9 8 9 11 11 11 13 13 13 12 13 13 14 13 12 10 9 10 8 2 2 3
12 11 11 11 11 11 10 10 9 9 8 9 9 11 11 11 12 12 13 12 14 15 16 16 15 13 13 15 11 7 5 6
8 8 12 14 14 12 11 11 9 7 7 6 8 9 8 9 10 10 10 11 12 13 17 20 20 19 18 16 17 13 13 13
7 10 12 10 8 6 6 8 6 7 7 7 4 5 5 6 7 10 11 12 13 14 16 19 21 21 21 20 20 17 15 15
13 13 10 10 7 6 5 4 3 2 4 5 1 3 4 6 7 9 11 11 14 15 17 18 23 23 21 20 19 19 18 16
15 9 7 10 7 6 9 5 3 4 1 1 2 2 3 3 3 5 7 9 12 15 17 20 23 25 23 22 22 21 20 19
18 14 13 9 7 7 6 7 6 6 7 6 3 4 4 4 5 5 6 8 11 14 17 20 23 23 22 23 24 23 23 23
23 16 13 8 8 7 7 11 9 10 9 8 7 8 10 9 9 10 11 14 16 18 20 23 25 24 25 23 22 23 23 24
25 19 4 9 8 8 6 9 8 8 8 9 10 12 14 15 15 15 18 20 21 24 26 28 30 30 30 28 26 25 25 25
28 21 10 8 12 10 8 7 8 9 8 9 12 14 19 17 15 18 21 23 31 29 30 33 33 33 33 32 31 30 31 32
25 17 7 4 12 12 8 8 7 8 8 7 9 11 12 15 19 21 26 29 30 30 31 29 30 31 34 35 34 34 32 29
21 16 11 13 13 12 11 8 6 4 3 4 5 8 11 13 16 20 23 26 27 30 30 31 33 34 36 37 35 34 33 32
15 14 15 15 14 12 9 9 4 2 3 3 7 10 13 18 23 25 25 26 25 26 30 35 36 37 39 36 35 32 22 26
15 13 11 9 5 4 2 0 3 5 8 10 13 17 21 24 25 26 26 28 29 32 34 32 29 26 29 33 22 35 23 20
10 11 10 8 4 1 3 6 10 14 18 21 24 26 27 27 27 29 30 30 27 23 22 21 21 20 23 24 18 15 35 28
6 7 9 10 10 12 14 15 17 22 22 20 20 22 25 28 30 27 24 26 24 22 20 21 23 25 25 26 28 29 24 33
8 10 11 12 15 15 14 15 16 16 15 18 21 27 30 30 24 26 32 33 25 19 21 21 20 20 19 22 25 25 25 25
2 4 6 9 12 15 15 16 16 18 20 24 27 30 31 26 27 31 37 29 24 24 26 24 23 25 25 24 25 23 20 18
2 7 9 9 11 14 15 16 16 18 17 21 28 28 27 25 25 30 28 23 20 22 23 23 24 24 24 23 21 20 21 26
4 10 14 17 20 21 20 20 22 23 27 31 32 30 27 22 27 32 23 20 20 22 22 21 19 17 19 18 18 19 18 19

GFSFLT2_850_spd_027.txt.gz
Wind_Speed
14 12 10 9 9 10 10 10 10 9 10 10 11 11 11 11 11 12 13 12 13 15 17 17 16 14 14 14 12 10 9 7
11 12 12 12 11 11 11 10 9 9 10 10 9 8 9 10 11 11 12 13 13 14 16 18 19 20 19 17 15 13 11 11
12 13 14 14 13 13 12 11 10 9 8 6 7 6 7 7 9 9 10 11 11 12 14 16 18 19 19 19 18 16 15 14
11 13 12 13 12 12 10 9 9 7 6 5 3 3 5 6 7 6 7 8 8 9 10 12 14 18 19 18 19 18 17 15
13 14 12 11 9 8 7 5 7 4 3 3 2 3 4 5 4 4 5 6 7 9 11 13 15 18 20 17 17 18 18 18
15 15 14 11 7 5 3 3 3 1 0 3 4 5 6 5 5 5 7 9 10 13 15 17 19 21 23 22 20 19 17 17
16 17 15 11 7 6 5 5 5 4 3 4 6 6 7 7 8 9 11 13 16 18 19 22 25 26 25 25 25 23 20 20
20 19 14 11 7 5 4 7 7 5 6 5 7 8 9 12 13 12 12 15 18 19 22 26 26 29 30 29 28 25 23 23
23 19 15 8 9 6 3 5 6 4 5 8 10 12 11 11 12 13 15 17 20 22 26 29 31 32 30 30 29 27 26 27
26 23 14 7 12 9 6 7 8 7 10 13 15 14 13 14 15 15 17 20 24 28 32 36 35 36 35 33 32 30 28 26
30 27 10 8 9 8 8 9 9 9 11 12 12 13 14 16 17 18 21 24 29 33 32 35 36 36 38 37 34 33 31 28
25 15 13 7 11 9 9 8 7 6 7 8 9 11 14 16 18 22 26 29 32 33 35 36 36 39 38 34 31 28 24 20
19 13 9 7 7 7 8 7 3 3 5 7 10 13 16 21 24 27 31 33 32 34 35 34 32 30 33 35 35 13 20 24
7 6 5 3 3 1 1 2 5 7 11 14 18 21 25 27 28 32 33 31 30 28 27 27 26 24 26 30 19 34 17 27
12 11 7 4 1 3 5 9 12 14 17 20 20 22 24 26 30 29 25 24 27 26 23 23 24 24 24 19 17 13 38 28
8 7 7 7 9 10 10 12 15 16 17 18 20 23 27 31 31 26 26 29 32 25 21 20 20 19 18 19 21 24 21 25
4 3 1 3 6 11 12 12 13 14 14 16 22 29 30 31 27 27 28 31 28 25 24 21 19 20 21 24 24 24 22 21
2 2 4 8 12 14 14 14 14 14 16 21 26 26 28 28 27 27 27 28 26 23 23 20 19 20 20 19 19 18 23 24
3 4 9 12 13 13 14 14 14 16 21 25 26 31 30 29 27 25 26 28 23 21 21 21 21 18 16 18 18 18 19 20
4 9 12 14 13 14 13 13 17 23 26 28 29 31 32 30 29 24 24 24 21 19 20 19 16 15 15 16 19 19 19 21

GFSFLT2_850_spd_030.txt.gz
Wind_Speed
15 13 11 9 9 11 12 12 13 12 12 12 12 12 12 13 14 14 14 14 15 15 16 17 17 18 19 18 16 16 13 11
12 11 11 12 13 13 12 12 12 12 11 10 9 11 11 11 12 11 12 11 11 11 12 13 15 15 15 16 17 17 16 14
12 12 14 14 14 14 12 12 12 11 9 8 7 8 8 8 7 8 8 7 7 7 8 9 11 13 15 15 15 15 15 14
15 15 15 15 14 14 13 12 11 9 8 6 5 4 6 5 3 3 4 4 5 7 8 10 14 17 18 18 18 17 16 16
15 14 13 13 12 12 12 10 8 6 6 4 2 2 3 2 2 3 5 6 8 10 12 13 16 19 22 22 21 19 19 18
15 15 13 12 11 8 7 7 5 3 2 3 4 3 5 6 6 7 8 9 9 10 13 14 16 20 23 25 25 25 22 20
15 15 13 11 10 9 6 5 4 3 1 2 2 2 4 5 7 10 11 10 11 13 14 16 19 24 26 28 28 27 25 23
15 14 12 10 6 7 9 9 7 7 6 7 6 6 7 8 8 10 11 13 15 17 19 22 26 27 27 29 31 29 27 25
19 16 13 12 11 9 6 8 10 9 10 11 10 10 9 10 11 12 13 15 17 20 22 25 28 31 34 36 34 33 31 28
22 19 16 12 11 9 4 14 11 11 12 12 11 11 13 13 13 14 16 19 23 26 31 33 35 38 39 37 34 32 29 28
27 23 15 8 8 11 6 10 10 9 9 10 11 12 12 12 15 18 22 26 31 35 36 36 37 36 34 31 29 27 27 25
31 26 17 17 11 8 8 6 3 2 6 6 7 10 14 18 21 25 29 33 36 35 34 33 33 32 31 30 28 26 23 17
25 16 13 3 9 5 1 6 5 4 5 8 12 17 20 21 25 28 31 33 31 31 31 31 30 31 32 34 32 17 17 26
5 8 12 9 2 4 6 7 9 12 13 11 17 20 19 23 27 30 29 27 26 27 27 26 25 27 27 29 16 25 11 20
15 12 9 6 6 7 6 7 9 12 14 14 17 17 21 25 27 27 26 26 25 26 25 24 24 21 20 18 11 9 25 14
10 9 7 4 6 7 9 9 11 11 12 14 14 18 24 25 29 27 25 25 24 25 23 21 19 18 18 16 16 19 14 19
5 2 2 1 4 7 9 10 10 10 10 11 17 21 24 25 26 25 27 26 27 29 26 23 20 21 20 21 21 21 17 19
3 5 2 6 9 11 12 11 10 9 12 17 22 22 25 26 28 29 30 28 26 25 23 20 19 20 18 18 18 21 22 20
5 4 5 7 10 11 10 8 10 14 18 21 20 21 25 25 28 27 28 24 21 18 22 19 19 20 19 20 19 20 22 24
7 3 7 10 11 8 7 10 14 17 19 20 20 22 24 24 26 28 25 22 17 20 18 19 19 19 18 19 20 20 21 21

GFSFLT2_850_spd_033.txt.gz
Wind_Speed
18 15 13 12 12 13 15 15 15 15 15 14 14 14 14 13 13 13 12 13 12 12 12 13 14 14 16 17 18 19 18 15
14 14 14 14 14 15 15 15 15 15 13 13 12 12 11 10 11 10 9 9 8 8 8 10 12 13 14 15 15 15 15 16
15 14 14 15 15 15 14 15 15 13 11 11 10 9 8 7 7 6 5 4 5 6 7 9 10 12 15 16 17 17 17 16
15 15 14 15 14 14 15 14 13 11 9 9 7 6 5 3 3 3 2 3 5 6 7 9 10 13 17 20 21 22 20 19
16 16 16 14 14 14 13 12 10 8 6 5 4 3 2 2 2 1 2 4 6 7 9 12 13 16 20 23 24 25 25 25
17 16 15 14 14 11 9 8 7 5 4 3 3 4 4 3 4 3 4 7 8 10 12 14 15 18 21 24 26 28 30 29
16 14 14 11 10 9 8 7 6 6 5 4 4 5 6 5 5 6 8 10 11 13 15 16 18 21 23 26 30 31 33 32
14 14 11 10 9 9 11 11 11 11 11 10 9 8 8 7 9 10 11 12 13 16 19 21 24 27 29 31 32 33 33 32
16 15 14 12 12 10 8 6 13 15 14 12 12 9 9 9 11 11 11 12 14 17 22 27 29 31 31 30 29 29 27 27
19 17 14 10 7 2 3 7 17 16 11 10 8 7 8 9 9 10 12 16 21 26 29 28 28 28 28 27 27 27 27 26
22 21 18 13 3 11 9 16 14 8 5 5 6 6 7 9 10 14 19 24 27 28 27 27 28 28 27 25 24 24 24 24
24 24 19 9 9 13 13 7 3 2 6 6 4 6 9 12 15 19 24 27 27 26 26 26 26 28 27 26 25 22 16 15
17 21 14 4 3 12 12 6 3 2 4 6 5 7 10 13 18 23 24 24 25 25 23 25 26 27 26 22 15 7 14 16
10 9 14 12 12 9 5 1 2 5 5 5 7 10 14 19 22 24 24 23 24 25 24 26 25 25 21 14 9 14 6 18
18 17 15 14 10 6 3 3 4 7 8 8 9 14 17 21 23 21 21 23 25 26 26 26 23 19 17 9 9 8 22 8
17 15 12 8 4 2 4 7 8 8 8 8 12 15 19 20 20 20 22 23 24 24 24 21 19 16 17 11 11 12 11 14
12 11 11 7 5 5 6 7 7 6 7 10 15 18 18 21 21 22 22 24 26 23 18 16 16 14 11 11 12 11 12 14
16 14 9 6 5 5 6 7 6 6 10 14 17 19 21 21 21 22 23 25 23 18 15 15 16 16 15 14 13 15 16 16
12 10 6 4 6 6 6 5 8 10 13 14 16 17 18 19 21 23 25 24 22 19 18 26 17 17 17 17 18 17 18 19
10 7 5 5 5 4 3 7 9 11 13 16 17 18 20 25 25 27 29 28 29 25 28 24 17 18 19 19 20 19 20 19

GFSFLT2_850_spd_036.txt.gz
Wind_Speed
16 16 16 13 12 13 15 15 13 14 14 14 13 12 12 11 11 11 11 10 10 9 9 9 10 12 13 15 17 17 14 13
15 14 14 13 14 15 15 15 14 14 13 12 11 10 9 8 9 8 7 6 5 4 5 6 7 9 12 15 17 18 14 13
15 14 13 13 13 16 15 15 14 13 12 10 8 6 6 5 6 5 4 2 1 3 5 7 9 10 12 15 16 13 13 14
15 15 15 16 13 15 15 15 11 8 8 8 5 6 5 4 4 4 3 2 3 6 8 10 9 8 10 15 13 19 14 15
14 15 16 16 12 11 9 9 10 8 7 7 7 7 6 4 5 5 4 4 5 6 8 10 14 14 16 18 18 16 16 17
14 15 16 15 11 9 11 8 9 5 6 5 7 6 8 7 6 7 7 8 8 9 11 14 16 18 21 23 22 19 18 20
13 14 13 13 12 12 11 9 7 9 10 9 8 9 9 8 8 9 9 8 8 9 10 13 16 16 21 24 23 19 18 17
15 14 13 13 13 12 11 10 10 12 13 12 12 10 9 9 8 8 9 8 10 12 16 18 17 19 17 20 22 19 17 18
14 16 16 14 12 11 8 4 8 10 15 15 12 9 7 7 7 7 8 10 13 16 19 14 14 15 16 17 16 16 16 16
18 15 12 11 8 8 7 10 11 15 14 8 7 4 5 5 5 7 10 15 18 18 14 15 14 15 17 18 17 18 18 15
18 18 16 12 7 4 9 13 8 8 3 1 2 3 3 4 7 12 17 17 19 18 14 15 16 16 19 19 19 20 17 14
16 18 18 11 5 8 9 10 6 7 3 4 4 4 5 8 13 17 18 13 13 20 19 15 16 17 21 19 20 17 14 11
12 11 19 12 4 12 13 11 7 5 4 5 5 5 7 11 12 14 14 13 18 19 16 17 18 17 21 21 20 15 14 15
11 10 11 12 13 13 11 8 7 7 5 8 7 8 11 13 15 10 13 12 13 14 16 18 18 18 17 20 19 19 16 13
18 16 18 18 16 13 9 8 5 6 9 9 9 9 10 12 16 18 16 15 15 16 16 16 19 18 16 16 19 18 21 20
19 20 20 19 17 11 10 4 5 6 6 5 4 10 14 18 20 20 18 16 16 17 18 15 16 19 17 16 16 18 21 23
18 18 15 16 15 8 5 5 5 4 4 4 7 10 16 17 15 16 16 17 18 18 16 17 16 18 15 17 16 16 16 18
16 15 14 12 9 7 7 4 4 3 4 6 10 12 14 15 16 17 18 20 20 21 20 19 16 17 16 14 15 16 18 19
14 12 10 9 8 6 4 4 3 3 5 9 13 16 17 18 19 20 20 21 23 22 21 19 18 18 17 16 14 15 16 18
12 12 9 7 3 3 3 5 3 5 9 12 13 13 15 16 18 20 21 22 21 20 19 18 17 20 18 17 15 15 16 16

GFSFLT2_850_spd_042.txt.gz
Wind_Speed
23 19 17 16 15 14 13 13 12 12 12 11 11 11 10 9 8 8 9 9 8 8 9 9 11 12 14 16 14 14 14 15
20 21 18 16 15 15 14 13 13 13 13 11 11 10 7 6 5 5 6 6 7 8 8 10 12 15 16 16 11 11 14 14
20 18 14 13 14 15 14 14 14 14 13 13 12 11 7 6 5 4 5 6 8 10 10 10 11 12 13 15 9 15 13 13
18 18 14 10 15 15 14 14 13 12 12 12 10 6 1 2 8 7 7 8 8 11 12 9 6 7 8 16 16 19 15 11
23 23 22 16 11 13 16 13 11 7 5 7 7 3 2 4 7 7 8 9 6 8 9 12 14 14 15 16 20 22 17 14
18 19 19 12 15 13 10 11 7 6 6 6 3 3 2 5 4 0 4 4 6 5 6 13 12 16 14 20 18 18 19 18
17 22 19 18 16 17 15 17 12 7 6 6 4 7 5 5 8 5 10 9 9 10 12 16 18 18 16 17 19 21 17 18
15 20 20 20 19 20 18 15 13 8 5 2 5 10 10 3 5 9 11 11 11 12 15 18 19 15 14 16 20 19 16 18
21 19 20 21 20 21 20 17 9 4 3 5 8 14 13 12 11 12 11 12 13 16 18 16 16 19 20 17 20 19 16 20
19 22 23 24 22 21 17 11 7 6 4 8 16 11 9 7 8 9 9 11 15 17 13 20 19 21 21 18 20 24 18 21
24 25 25 20 16 13 14 13 18 18 17 9 6 4 4 4 7 7 9 7 9 15 22 22 21 19 18 19 23 18 20 20
24 23 20 17 15 14 15 16 20 21 16 7 7 4 3 3 8 9 11 8 16 22 21 17 18 17 21 20 20 21 17 19
19 19 19 19 17 15 14 17 10 12 12 8 6 3 5 5 6 7 11 12 12 13 15 18 19 20 22 27 22 20 18 15
21 20 15 14 14 12 9 9 9 8 9 9 8 7 7 4 8 7 10 15 15 12 17 22 21 16 23 25 26 26 17 18
20 21 16 15 10 10 10 10 9 11 9 10 13 8 3 3 7 10 15 15 12 16 18 18 21 26 24 21 25 19 26 25
16 16 14 14 16 14 12 14 13 12 11 6 11 9 9 6 10 15 16 16 18 18 20 24 28 27 26 24 25 28 24 24
19 16 19 19 19 15 14 10 14 15 13 14 10 7 12 9 10 11 14 14 16 20 21 20 22 25 26 27 26 24 24 23
23 21 23 20 17 16 15 13 10 12 11 9 6 9 9 10 14 16 19 22 26 24 26 26 26 26 30 30 23 20 18 20
23 22 22 20 19 16 15 13 12 12 13 15 14 13 11 14 17 21 23 20 21 23 25 25 25 25 29 25 21 21 19 19
22 23 21 19 18 16 17 15 14 13 8 12 12 12 15 16 17 15 20 21 23 24 24 23 23 23 23 21 21 17 17 17

GFSFLT2_850_spd_045.txt.gz
Wind_Speed
24 21 19 17 16 16 17 16 16 16 16 16 16 16 15 14 13 12 11 10 9 10 10 11 12 14 14 11 10 13 11 14
24 19 17 17 17 16 17 17 17 18 17 16 15 14 13 12 9 8 7 7 8 9 10 8 9 10 10 10 13 14 12 11
23 19 16 16 16 17 17 17 18 18 17 16 14 13 12 12 7 5 5 6 7 10 8 5 6 8 11 13 15 16 18 13
22 20 18 18 19 19 18 19 19 19 16 13 10 9 6 6 7 6 6 6 7 8 5 5 8 12 13 16 19 22 19 16
23 22 19 20 20 21 21 20 20 18 12 13 8 5 3 1 4 5 6 4 2 1 4 8 12 12 11 14 18 17 18 17
24 21 18 16 21 23 20 16 14 15 14 13 11 8 4 4 7 7 7 6 7 8 9 11 13 14 14 12 14 17 19 13
28 25 18 23 23 21 19 17 15 15 13 11 11 12 10 9 9 10 10 10 9 10 11 13 15 16 14 13 15 18 18 12
29 26 22 21 20 21 22 21 17 13 10 10 13 12 11 10 11 11 12 10 9 10 13 16 15 17 16 15 14 17 15 14
30 27 29 23 26 23 21 19 15 11 14 13 11 10 8 9 11 10 10 9 10 13 15 15 18 16 17 12 13 17 19 19
25 29 29 25 24 24 21 18 16 17 14 9 8 5 7 8 11 9 7 9 13 15 16 19 19 19 20 16 17 20 21 15
26 28 26 24 23 24 22 21 19 13 11 6 4 4 4 6 4 6 8 10 12 14 19 23 23 24 20 22 21 18 17 13
23 27 27 26 21 21 21 20 16 16 12 10 8 7 6 5 5 6 9 10 12 17 18 19 22 25 23 20 24 26 10 12
24 25 27 25 23 18 18 18 19 18 17 15 11 7 5 3 7 8 8 12 15 15 16 20 24 24 27 32 34 21 23 11
27 26 25 22 20 16 14 15 15 10 12 11 10 8 5 7 9 11 12 16 18 18 19 22 22 21 26 33 24 33 21 15
24 22 16 19 16 16 15 13 14 15 13 11 9 8 8 8 11 14 17 18 19 21 21 22 23 25 26 23 22 18 32 29
22 16 14 16 16 15 17 19 17 12 5 7 10 10 6 9 13 14 15 15 17 20 23 24 26 25 24 23 24 27 31 29
16 13 16 21 21 16 16 13 8 9 11 11 10 8 8 11 10 11 13 15 19 21 24 29 26 27 26 24 27 28 28 28
14 17 21 20 21 20 15 14 17 18 20 19 14 7 11 14 13 14 16 18 22 27 28 25 26 26 26 25 29 25 24 22
22 24 23 25 26 22 20 18 21 19 17 16 17 15 12 12 18 20 24 27 27 25 24 24 23 23 24 24 24 26 23 22
24 27 30 31 28 24 24 21 20 18 19 20 18 14 18 23 24 26 27 24 24 21 20 17 16 19 22 23 23 24 18 15

GFSFLT2_850_spd_048.txt.gz
Wind_Speed
26 27 22 16 16 17 17 18 20 20 20 21 21 20 19 17 16 14 13 11 10 8 8 9 8 9 11 11 10 12 13 14
28 39 29 12 14 17 18 19 20 21 20 20 19 18 15 13 12 10 9 9 8 7 8 8 7 9 11 12 13 12 16 14
28 26 23 19 19 18 19 20 21 20 20 19 18 16 14 11 9 8 9 7 6 5 4 3 4 9 12 15 16 16 16 16
25 21 24 24 22 21 22 22 21 21 17 17 15 14 11 12 13 12 9 7 4 1 2 3 7 9 11 15 16 17 16 18
28 25 23 23 24 23 23 23 22 18 16 14 13 10 11 10 10 6 4 3 2 3 3 6 8 9 12 13 15 15 16 17
23 23 22 22 22 23 23 23 21 18 15 13 11 11 9 12 11 8 6 4 4 4 6 8 10 12 12 13 14 14 15 16
25 22 23 22 23 24 24 22 18 17 14 13 12 11 8 9 9 8 9 6 6 9 9 10 11 12 12 11 12 13 13 12
28 23 20 24 25 24 22 19 16 14 14 14 13 12 11 9 7 9 9 9 10 10 10 11 12 13 11 11 10 12 15 15
29 24 27 27 25 23 19 17 18 17 15 13 15 13 11 12 10 10 9 9 8 9 10 11 13 12 14 13 13 16 17 17
31 29 29 26 25 22 22 21 21 18 16 16 12 10 11 13 10 9 7 8 8 10 12 15 15 18 19 18 16 13 18 12
35 32 30 25 25 25 24 24 21 17 15 12 8 7 8 9 9 8 7 8 9 11 16 18 18 20 20 18 16 20 13 8
33 33 32 29 28 27 25 22 20 17 15 11 8 8 10 10 10 9 8 7 9 14 16 16 18 20 20 18 24 23 2 19
30 32 35 31 29 26 25 24 23 21 18 13 11 11 11 11 9 8 7 8 12 15 14 16 18 22 25 28 31 10 22 10
27 28 29 29 27 26 25 22 22 20 17 16 15 14 12 11 8 7 10 11 14 14 17 19 22 23 26 28 13 27 6 23
26 24 25 26 26 26 25 22 20 21 18 18 17 15 11 8 8 10 12 14 15 17 21 24 25 26 25 18 13 9 32 24
30 27 26 24 28 29 26 24 23 18 16 16 16 14 10 9 13 12 13 16 18 22 24 24 26 28 25 21 20 22 24 25
32 29 25 22 29 27 22 22 18 15 18 18 16 14 13 12 11 11 16 18 19 20 22 25 29 28 26 25 24 23 23 25
29 26 20 21 27 23 18 18 19 20 21 20 17 18 16 16 15 16 18 18 19 21 25 27 27 27 25 23 22 22 21 24
30 22 21 22 26 22 19 19 21 21 20 22 22 21 21 16 12 16 18 22 22 24 25 25 23 22 21 21 21 20 20 25
28 23 22 25 23 23 21 22 23 22 23 26 26 25 19 19 17 17 23 23 25 26 24 23 22 23 24 24 24 23 21 17

GFSFLT2_850_spd_051.txt.gz
Wind_Speed
30 29 28 20 21 19 15 17 20 21 23 24 25 24 22 20 18 17 14 12 10 9 9 9 8 10 11 11 11 12 15 14
32 32 29 17 15 10 16 18 20 21 23 23 23 21 19 17 15 14 11 9 7 7 7 8 9 10 12 14 12 13 14 14
30 33 35 24 15 13 16 18 20 21 22 21 20 18 17 15 13 10 7 5 6 6 6 6 8 11 12 13 14 14 14 14
35 36 27 25 20 20 20 22 23 21 21 21 19 18 15 12 11 9 5 4 4 3 5 5 8 10 12 14 15 14 13 14
28 26 29 22 22 21 23 22 22 21 20 20 17 15 13 11 8 7 5 1 1 2 5 7 9 9 11 12 13 13 13 13
31 28 22 21 22 22 22 22 22 20 19 17 15 14 12 10 8 3 2 2 2 3 4 8 9 9 10 12 13 14 13 14
23 22 21 21 21 23 25 23 21 17 17 15 14 13 9 10 7 7 7 6 4 6 6 7 9 10 11 10 10 11 12 13
23 22 22 23 24 26 25 23 19 16 13 13 11 9 8 8 7 9 9 8 7 9 8 8 10 10 10 11 10 12 13 15
25 22 25 25 26 26 25 21 19 17 15 12 9 9 9 9 10 10 10 9 9 8 7 9 10 9 11 12 12 12 17 16
28 25 25 26 28 26 25 22 20 18 14 13 13 13 12 13 13 11 11 10 8 7 8 11 11 14 16 17 14 16 17 10
29 28 26 29 30 28 25 22 20 17 16 16 14 13 14 13 14 13 13 10 7 8 12 12 14 16 18 17 20 18 5 6
30 29 28 29 29 27 25 24 23 22 19 17 14 13 13 16 16 13 10 7 8 11 12 13 14 17 19 18 22 9 4 19
34 32 33 33 32 31 30 28 26 23 20 17 14 13 15 15 13 10 8 9 11 12 11 12 15 19 23 26 18 5 12 5
36 35 34 35 32 29 30 28 26 22 19 17 15 14 15 14 12 11 11 11 11 12 11 14 18 22 24 24 13 19 8 8
32 35 35 33 32 31 29 28 25 24 22 22 19 17 17 14 11 10 10 10 13 12 15 18 21 23 24 21 10 7 24 17
36 35 36 36 34 32 32 31 31 26 24 22 19 18 16 13 12 11 10 12 14 15 17 19 23 24 25 23 20 19 16 17
40 39 35 35 35 34 33 32 28 23 20 20 20 20 19 16 14 14 14 14 16 19 18 20 24 25 23 22 21 21 20 22
42 40 36 35 33 32 33 32 27 23 23 24 22 22 20 18 17 16 12 12 15 18 21 23 24 22 21 19 19 20 20 20
43 42 33 29 31 32 32 28 24 24 23 23 23 23 21 22 22 15 10 12 17 17 23 25 21 20 20 21 22 22 22 21
42 42 31 29 29 27 27 24 22 22 21 22 23 25 27 27 22 17 17 19 18 22 28 20 18 19 20 22 20 18 17 15

GFSFLT2_850_spd_057.txt.gz
Wind_Speed
23 32 41 34 20 25 30 29 31 33 36 34 32 29 25 22 21 18 17 16 16 15 13 12 12 11 11 11 12 13 14 14
23 26 27 27 25 14 21 27 29 32 32 32 30 27 24 21 18 15 14 14 13 12 11 11 10 9 10 11 11 12 14 13
22 24 27 25 41 24 17 25 25 29 30 30 28 25 22 19 16 14 12 11 10 9 8 7 8 10 12 11 11 12 12 12
31 40 31 45 45 38 31 21 25 28 29 27 25 22 19 17 15 12 11 9 8 5 4 6 8 10 10 11 12 13 12 10
23 30 40 40 39 35 27 27 29 29 27 25 22 20 18 15 13 11 10 8 4 2 2 5 9 10 11 12 12 11 11 10
38 35 39 37 29 25 26 23 25 26 26 23 20 17 15 13 12 10 7 5 3 1 2 6 8 10 10 11 11 11 11 11
42 38 35 28 26 26 26 24 26 25 23 21 18 17 15 14 12 9 7 6 4 2 5 5 8 9 9 10 10 10 10 10
34 30 26 23 24 24 21 23 24 23 22 19 17 16 15 14 13 10 8 7 5 4 5 5 7 9 9 8 9 10 10 7
30 28 26 24 21 19 20 22 22 23 21 20 18 17 16 14 14 12 10 8 7 5 6 6 7 7 7 9 10 10 7 4
31 29 19 19 20 21 22 25 24 22 20 21 19 17 18 15 14 12 11 11 8 8 6 4 6 6 8 9 11 10 5 5
30 28 22 20 21 22 23 23 24 23 20 19 19 17 15 14 11 11 13 12 9 8 7 6 6 7 9 12 11 7 4 4
24 22 19 19 21 22 24 26 25 24 22 21 20 18 14 12 13 14 15 12 13 10 9 7 6 8 10 13 10 8 5 7
25 24 22 23 26 27 27 29 27 26 24 21 21 16 15 14 17 16 16 15 13 11 9 6 7 8 10 15 9 10 6 9
29 27 26 25 24 26 28 27 29 27 25 25 23 18 17 19 18 18 17 17 14 11 8 6 7 8 11 12 3 9 7 10
30 29 29 29 28 26 29 30 29 30 29 27 22 19 20 20 20 19 18 17 15 12 10 8 6 10 13 8 5 4 14 7
29 28 28 30 30 29 30 31 30 29 29 26 22 22 22 22 22 21 20 20 17 14 13 9 8 10 12 13 14 12 7 10
30 29 28 29 30 32 31 33 33 31 30 26 23 24 24 24 24 23 23 20 18 17 14 11 9 15 16 16 15 15 15 12
32 32 31 31 30 32 32 33 33 33 31 27 25 26 28 27 26 25 24 22 22 21 17 14 14 16 19 17 14 12 9 10
35 35 35 35 34 35 32 31 33 35 34 28 27 30 31 29 28 27 26 25 24 20 15 14 13 18 15 15 16 15 15 15
37 38 39 39 37 37 29 18 34 36 35 31 28 29 29 28 29 29 29 28 28 21 22 16 12 13 17 17 14 14 14 14

GFSFLT2_850_spd_063.txt.gz
Wind_Speed
19 22 28 30 30 25 20 21 26 28 32 33 32 29 27 24 21 20 20 18 16 14 12 12 12 13 14 15 16 18 12 10
38 41 28 28 21 19 21 16 22 29 31 30 30 28 26 22 20 19 17 16 13 12 10 11 11 12 12 13 15 15 9 6
41 39 35 34 31 21 32 34 26 28 28 27 27 25 23 21 19 17 15 14 11 10 8 9 9 11 11 11 13 6 7 5
39 35 40 37 22 33 38 33 28 30 30 28 24 23 22 18 17 16 14 12 9 7 7 11 13 8 9 10 5 7 6 5
30 36 36 25 36 37 36 32 34 33 29 25 23 20 18 19 18 15 13 11 9 7 7 8 4 3 3 5 6 6 4 4
37 32 26 29 30 37 35 34 34 33 28 24 24 17 17 18 15 15 14 9 8 6 6 1 1 2 4 5 5 4 3 3
28 31 26 29 37 35 35 35 30 25 27 23 21 16 17 14 14 13 11 11 9 8 3 2 1 2 3 4 5 6 4 4
27 23 22 33 35 31 29 26 22 28 26 23 18 16 19 15 16 13 13 11 9 7 5 2 3 1 2 3 3 2 3 6
21 27 35 29 23 23 20 17 19 19 16 16 18 17 16 15 14 13 12 11 11 10 8 6 4 4 3 1 2 3 1 1
27 27 25 19 18 19 18 17 17 17 18 17 20 19 17 16 13 15 16 14 13 10 8 6 7 7 5 3 1 1 2 1
27 24 21 18 18 17 15 17 19 19 17 16 17 19 18 18 19 16 18 15 14 12 9 10 9 7 6 5 4 2 4 3
25 23 21 19 17 16 15 15 16 17 18 16 20 20 19 19 17 20 20 17 17 13 11 10 8 8 7 7 6 6 5 7
23 23 22 20 17 17 17 18 18 19 18 19 20 19 21 21 17 19 20 18 15 15 13 12 9 10 7 7 9 11 7 7
23 22 22 20 18 18 18 18 19 19 18 18 20 20 23 23 21 20 22 18 18 19 16 11 11 10 6 7 5 6 6 8
25 24 23 21 19 18 18 18 19 20 20 19 23 23 24 23 21 24 24 24 24 22 19 16 13 11 9 4 4 4 15 10
27 26 25 24 23 21 22 21 22 21 21 21 28 23 27 24 23 26 27 25 28 23 20 17 16 15 12 11 9 8 6 10
29 28 27 25 24 24 22 22 20 18 19 21 25 21 24 23 25 32 28 28 29 26 21 19 16 17 23 18 12 15 12 14
28 28 29 28 26 26 26 24 23 21 22 24 24 21 25 25 29 30 28 31 29 29 22 18 25 24 20 20 17 15 11 14
29 29 29 29 29 28 28 28 25 25 23 23 18 22 25 29 27 30 32 33 29 23 22 26 24 21 20 19 18 13 15 12
31 30 29 30 31 29 27 27 27 26 28 23 26 24 28 25 28 29 31 31 26 24 30 27 25 24 22 21 18 17 13 12

GFSFLT2_850_spd_066.txt.gz
Wind_Speed
12 5 24 27 36 33 29 34 32 31 30 30 29 30 29 25 24 23 21 18 17 16 16 14 14 16 18 19 21 17 10 10
17 15 25 21 12 27 23 22 28 30 31 32 30 28 25 23 22 21 19 16 15 15 14 13 13 15 17 18 18 16 7 2
21 25 21 15 24 19 25 21 21 28 29 28 29 26 23 22 21 20 17 15 13 12 11 13 13 13 13 12 11 14 3 6
27 32 20 20 24 21 26 34 33 28 29 30 29 26 22 20 19 17 15 13 11 11 12 13 12 9 9 6 10 11 3 5
33 32 22 27 27 23 34 35 30 30 29 29 26 22 19 18 18 16 15 12 10 9 8 9 9 7 4 5 11 7 3 5
25 28 31 24 26 34 40 34 30 32 30 25 24 20 19 17 16 16 14 11 8 6 5 4 6 2 3 6 6 4 7 4
29 36 25 24 34 39 40 31 32 32 28 24 27 22 16 17 16 14 12 8 7 8 5 4 3 2 3 5 5 6 10 6
29 23 26 30 35 33 34 30 34 29 26 25 21 17 15 13 13 12 11 12 11 9 5 2 2 1 1 2 1 1 6 3
30 25 27 29 27 30 27 27 28 26 22 22 21 17 18 19 19 13 16 12 8 8 10 6 7 2 4 0 3 3 1 10
20 23 31 31 27 27 27 31 21 19 17 22 22 20 15 17 17 19 15 14 17 16 12 9 7 5 4 1 4 4 5 3
33 40 39 35 32 33 24 23 23 22 19 20 23 22 20 22 16 19 20 20 17 13 11 8 10 10 8 7 9 5 9 2
38 31 23 25 27 25 24 20 25 22 23 19 18 21 23 20 23 23 20 20 17 19 13 13 13 9 9 10 10 9 9 10
31 28 27 26 30 25 22 22 23 22 19 20 22 20 22 23 23 21 21 20 21 18 17 17 16 16 19 14 12 16 16 12
31 32 30 28 22 24 23 23 20 24 25 20 24 24 22 25 22 21 23 19 22 20 21 20 18 20 17 9 11 16 17 12
36 30 30 29 27 21 22 23 21 23 26 25 27 30 29 24 22 24 25 22 24 25 26 23 20 22 22 15 9 9 11 4
33 33 31 30 29 28 27 26 27 26 26 26 28 28 25 26 24 21 26 27 24 28 30 29 26 25 25 22 20 13 8 8
32 32 31 30 26 27 26 26 24 24 24 25 24 25 22 23 23 22 24 28 29 31 33 30 26 27 26 27 20 15 13 13
34 32 32 30 30 29 27 28 27 24 24 23 27 27 23 22 21 26 20 32 33 33 33 28 28 25 28 26 22 16 17 12
36 36 35 32 31 30 28 27 26 26 24 24 31 27 24 20 29 29 29 29 30 31 32 34 30 30 29 27 23 17 19 20
39 38 37 35 35 32 28 26 29 25 28 27 35 32 29 24 26 28 25 24 30 34 34 33 31 30 30 27 20 19 20 21

GFSFLT2_850_spd_069.txt.gz
Wind_Speed
16 14 18 11 32 41 36 36 38 38 37 38 36 34 33 32 29 26 24 22 21 20 19 20 22 23 22 21 11 4 5 9
11 12 16 15 20 16 26 29 31 29 33 38 36 33 31 30 29 25 22 21 19 19 19 18 20 21 22 18 10 5 6 9
19 18 15 11 15 29 27 27 25 27 29 33 35 33 29 28 26 23 20 19 17 17 18 18 17 17 16 16 8 5 2 5
16 14 16 15 27 30 25 38 29 25 28 30 32 31 29 26 24 22 18 16 16 16 16 15 14 11 12 15 9 3 1 5
22 23 20 22 22 29 31 36 32 33 30 29 29 29 26 23 22 19 17 14 13 13 11 9 10 7 7 11 7 3 1 4
25 22 21 24 29 28 40 35 36 32 31 30 28 26 24 21 18 17 14 13 10 9 8 6 7 6 6 6 5 2 1 4
26 26 19 23 30 35 40 37 31 31 30 28 25 23 21 18 17 16 13 12 8 7 5 5 5 5 6 8 8 5 2 1
25 23 22 24 29 43 43 36 33 30 29 25 24 19 16 15 14 13 13 11 8 7 5 5 5 4 3 3 4 6 3 3
26 23 23 27 34 45 40 35 32 29 27 23 18 16 16 16 16 14 14 11 9 10 8 5 4 4 3 4 4 5 8 7
24 22 27 25 35 43 36 36 30 29 28 24 21 18 16 14 14 13 14 13 14 11 10 8 7 7 4 5 6 4 6 5
25 25 28 30 35 38 31 29 28 22 23 22 19 19 17 18 17 16 18 17 17 16 15 13 11 10 10 9 11 9 7 6
23 32 37 38 37 31 31 24 25 20 23 23 21 21 21 19 19 18 20 20 20 20 19 16 13 14 14 14 14 15 12 11
35 36 37 35 32 34 36 31 24 24 24 24 22 22 25 23 22 23 22 21 21 22 20 19 19 20 16 16 16 16 17 16
34 34 34 34 40 31 26 28 27 26 26 26 24 22 21 23 24 24 25 24 23 23 24 25 24 25 24 22 20 21 25 24
33 32 31 33 33 29 31 27 25 27 30 27 24 24 25 23 21 25 27 25 22 24 26 27 30 28 27 21 12 14 19 25
32 32 31 33 32 33 33 32 30 29 30 29 27 28 28 29 29 29 31 28 25 24 25 27 30 28 26 26 24 13 12 11
34 35 37 37 34 30 30 30 30 27 28 28 31 32 32 30 30 32 31 31 28 24 21 28 34 30 31 31 29 25 19 13
34 39 36 33 33 38 35 32 32 34 31 33 34 35 34 33 30 29 29 29 26 25 24 28 35 33 30 23 30 24 23 20
41 40 41 39 37 36 41 38 36 37 34 35 36 37 37 35 32 29 27 26 25 24 28 27 30 33 31 31 30 24 26 23
47 44 46 47 45 44 43 42 39 40 37 38 39 41 37 35 34 26 22 22 25 27 26 29 31 30 29 29 23 30 27 26

GFSFLT2_850_spd_072.txt.gz
Wind_Speed
17 25 13 4 7 7 47 37 44 44 39 38 39 39 37 34 31 28 27 27 27 27 28 26 20 14 12 11 11 11 12 15
12 11 10 9 7 3 28 35 31 40 39 38 37 36 35 33 30 28 25 25 25 25 25 25 21 15 11 9 9 9 10 13
14 16 15 21 19 29 24 32 28 33 37 36 36 36 34 30 28 26 24 23 23 23 23 22 21 14 10 8 7 8 9 10
13 14 11 13 17 29 39 41 39 29 31 34 34 34 32 30 27 25 23 21 21 21 21 20 19 13 9 6 4 5 6 8
13 15 16 22 36 37 41 43 40 32 32 29 29 31 31 29 27 24 21 19 19 16 15 15 15 11 9 7 4 4 5 7
20 19 23 27 34 40 40 42 43 39 39 35 30 32 31 27 25 22 20 18 16 14 12 12 11 10 8 7 5 3 3 4
22 20 25 28 32 34 42 43 37 38 39 34 32 32 29 26 24 22 18 16 12 11 10 9 9 8 8 7 5 3 2 3
23 24 26 28 28 38 45 38 37 37 35 34 32 28 26 25 21 19 16 13 12 10 8 7 8 8 8 7 4 4 2 2
24 26 27 30 35 41 41 38 38 35 35 32 28 26 22 19 18 18 16 13 12 10 8 8 8 7 7 7 5 5 4 6
24 28 29 32 36 42 42 38 36 35 33 29 25 22 21 19 17 15 16 15 11 10 9 8 7 6 7 7 7 6 5 8
25 24 28 33 41 43 39 39 34 35 32 28 27 23 18 16 16 15 15 15 13 11 11 9 8 8 9 10 8 8 8 10
22 21 29 35 42 40 38 37 33 32 30 26 23 20 18 19 18 16 17 18 17 15 14 13 13 13 12 13 13 13 13 13
25 27 29 37 44 38 39 40 35 29 26 25 25 23 21 21 18 19 20 21 19 17 18 19 19 18 16 18 19 20 19 18
29 30 33 41 46 44 42 36 32 28 25 27 27 26 25 24 24 25 23 22 22 22 22 23 22 22 24 23 17 23 26 25
31 36 39 44 45 40 38 31 27 30 29 31 31 29 26 25 26 27 25 25 25 24 24 25 25 24 26 22 11 15 21 27
37 41 41 45 42 43 40 40 38 36 34 30 32 31 28 27 26 25 25 26 27 27 26 24 26 27 28 33 33 24 12 6
40 40 39 40 41 41 38 39 36 33 31 31 33 31 30 29 30 28 28 27 29 29 28 26 25 29 31 35 37 34 30 17
39 40 40 40 41 41 38 38 39 37 34 33 34 34 35 33 32 31 30 30 31 30 31 27 25 28 32 37 39 37 35 31
41 42 41 39 40 39 39 40 40 37 34 35 34 35 37 36 32 33 34 32 28 27 28 27 27 30 32 38 37 33 32 29
44 44 42 40 39 40 40 41 42 41 37 35 38 38 38 34 35 34 33 31 29 25 26 27 30 32 34 27 29 28 29 25

GFSFLT2_850_spd_075.txt.gz
Wind_Speed
15 20 20 11 25 35 36 34 45 42 39 41 40 38 35 32 32 33 33 33 29 22 20 20 18 15 15 14 15 16 16 17
13 21 27 23 7 9 21 48 47 43 40 40 35 33 32 32 32 32 33 31 28 23 19 18 17 14 12 11 14 14 15 15
25 28 30 19 19 10 24 40 42 41 38 41 41 39 34 32 31 31 32 30 27 23 17 14 13 10 10 10 11 12 13 13
14 18 18 20 14 11 34 43 37 36 37 41 40 37 33 30 29 29 30 29 27 23 18 14 11 10 10 8 8 10 10 11
15 15 16 17 19 33 44 44 41 39 37 40 39 36 34 32 30 28 27 25 24 23 19 15 12 8 9 7 7 8 8 9
16 15 16 20 25 36 33 44 44 40 40 39 39 35 32 29 27 26 24 23 22 20 18 17 13 11 7 7 7 6 6 7
19 19 23 26 29 34 42 45 42 38 36 36 36 31 26 25 25 24 23 21 18 18 16 13 11 10 8 6 5 4 4 5
21 21 27 28 34 38 46 48 43 42 41 33 32 32 33 30 26 23 20 19 17 13 11 10 9 7 7 6 4 4 3 3
20 24 28 30 34 38 45 50 45 42 44 41 36 34 31 28 24 23 20 17 15 12 11 10 10 8 7 6 5 5 3 4
23 26 29 35 35 41 44 42 41 45 45 37 33 32 28 23 22 21 18 15 13 11 10 11 10 10 9 8 8 6 5 6
22 28 33 37 39 44 38 38 40 42 39 34 33 31 25 24 22 18 17 16 13 12 12 10 10 9 10 10 9 8 8 8
20 28 31 35 41 41 37 36 36 35 35 33 30 28 27 23 19 17 17 16 15 13 12 11 11 9 10 12 13 12 12 12
23 24 22 33 41 42 38 37 34 35 34 30 29 26 22 22 20 18 15 16 15 14 14 16 15 13 14 16 18 18 19 18
29 25 26 32 39 43 38 38 33 34 33 30 27 24 24 20 19 17 18 17 17 18 18 18 17 17 20 20 18 23 26 25
28 24 25 30 40 41 38 36 34 32 30 28 27 24 21 21 19 19 22 21 21 21 21 21 21 22 26 23 11 18 19 22
26 25 26 31 43 43 40 42 36 36 30 26 24 24 24 24 23 25 25 25 27 26 24 25 26 27 28 30 31 28 18 15
27 27 30 33 42 44 42 41 38 37 34 30 27 29 31 30 31 29 28 27 27 26 28 28 30 31 32 31 32 33 36 34
29 32 34 36 46 47 46 44 41 39 37 36 35 33 34 35 36 33 30 31 31 31 29 30 31 32 33 31 30 31 32 34
34 35 39 40 47 49 47 48 43 43 41 37 37 37 37 39 38 37 34 34 33 33 31 28 29 31 30 28 30 33 38 40
39 40 43 44 47 47 45 48 47 45 43 41 39 38 38 38 38 36 36 36 36 34 31 29 28 28 30 28 32 31 25 32

GFSFLT2_850_spd_078.txt.gz
Wind_Speed
20 25 27 26 28 22 24 30 35 35 34 31 37 38 36 34 33 29 27 25 24 24 23 22 21 20 19 19 19 18 19 20
17 30 33 33 26 24 30 34 33 41 42 37 39 40 37 34 30 30 28 25 23 24 23 20 19 17 16 17 18 17 17 18
14 14 29 30 27 22 13 33 39 34 37 41 42 39 36 32 32 32 27 24 22 23 22 19 18 16 16 16 16 16 15 16
17 16 25 26 19 15 9 29 33 43 40 42 42 38 35 33 32 31 28 23 21 21 19 17 15 14 14 14 14 14 13 14
16 22 25 22 18 14 21 34 51 47 42 41 41 39 36 31 34 33 28 23 21 20 18 15 12 10 12 13 12 12 12 12
14 17 19 18 18 26 39 41 50 50 46 39 41 39 37 34 33 29 27 24 20 18 17 16 13 13 11 10 10 10 11 11
14 14 15 16 25 37 40 37 43 44 46 38 38 36 34 33 30 28 26 23 19 17 15 13 12 13 11 8 8 9 9 9
16 16 16 24 33 38 38 36 37 40 41 41 39 35 32 28 27 26 24 22 19 15 15 15 12 11 10 8 6 7 6 6
15 15 17 25 35 38 37 36 44 43 40 40 35 31 26 23 22 21 21 20 18 18 17 14 11 10 8 8 6 6 4 4
15 17 21 24 29 34 37 41 45 43 38 37 34 31 29 23 27 26 23 19 18 16 13 11 10 9 8 7 6 5 4 4
20 21 25 26 29 37 41 39 38 41 38 35 32 29 28 29 27 24 21 19 18 13 12 8 8 8 8 7 7 6 6 7
16 21 26 29 32 38 41 38 32 41 37 36 34 29 28 26 23 21 21 20 16 13 11 11 10 7 7 8 9 11 11 11
16 21 26 32 30 34 34 41 35 34 38 42 31 30 28 24 22 22 22 18 14 14 14 14 11 11 11 12 14 15 16 17
17 18 24 32 31 34 30 35 34 37 40 35 29 28 27 25 24 24 20 16 16 18 16 14 13 15 15 14 15 19 23 24
20 20 22 27 32 39 36 33 30 37 36 35 30 28 26 24 25 22 20 19 18 18 17 17 17 18 19 17 8 11 18 18
23 26 23 26 36 40 40 39 35 36 35 33 36 28 27 25 24 23 22 21 20 22 20 21 20 22 24 26 27 27 21 12
24 26 25 27 33 39 42 39 38 39 36 34 38 30 30 28 26 25 24 24 23 24 24 24 26 27 29 31 30 32 33 32
24 26 26 28 32 37 43 42 42 41 41 37 35 34 32 30 27 27 28 28 26 27 27 28 29 30 32 33 33 30 28 29
25 26 29 29 33 37 43 44 44 44 44 42 39 36 34 32 30 31 31 31 32 31 32 33 32 33 33 35 34 32 33 32
29 29 30 31 35 38 44 44 44 45 43 41 41 40 38 35 33 31 32 32 34 34 35 35 36 34 35 33 32 31 28 32

GFSFLT2_850_spd_081.txt.gz
Wind_Speed
21 23 31 36 39 30 28 27 30 27 33 36 34 35 35 34 31 27 26 27 27 26 23 23 22 22 22 21 20 20 21 22
15 21 27 28 40 29 25 27 28 31 42 39 40 39 37 35 29 27 28 27 26 26 24 23 21 21 21 21 21 20 21 21
10 18 25 23 29 28 22 20 26 37 40 44 42 43 39 33 30 30 28 26 26 25 23 22 21 20 20 20 20 18 19 19
11 11 23 26 31 31 24 20 31 40 43 51 44 41 39 33 31 29 27 26 26 25 22 21 20 20 19 17 17 17 17 18
13 15 17 23 26 26 28 29 32 42 37 43 40 38 35 35 34 29 28 27 27 24 22 19 18 17 18 16 15 16 16 16
14 18 18 23 28 21 24 20 35 47 40 42 40 40 38 37 35 31 29 27 26 23 20 18 16 16 14 15 14 15 15 15
12 12 14 15 16 16 18 35 40 44 44 44 43 41 40 38 33 29 25 24 21 21 19 18 15 15 14 12 13 13 14 13
11 12 12 14 14 20 27 36 53 46 42 41 40 39 38 35 31 26 25 21 19 17 17 16 15 13 13 12 11 10 10 11
12 12 12 12 17 20 30 33 44 44 38 39 39 36 34 32 29 24 20 21 17 15 13 13 15 14 12 11 10 9 8 8
14 14 13 17 23 26 35 39 41 41 39 36 37 33 27 29 27 23 24 21 16 15 14 15 15 13 13 11 10 9 8 8
17 16 16 21 29 28 30 38 42 43 41 35 32 33 31 29 29 31 23 19 17 16 17 18 16 13 12 11 9 9 8 8
18 18 18 20 32 30 28 38 45 42 40 41 39 35 34 31 31 20 18 20 21 19 19 15 13 10 9 9 10 11 11 11
17 21 21 23 26 31 30 39 49 37 40 38 32 30 27 27 21 22 24 23 20 20 18 17 16 15 12 12 12 13 15 16
19 19 22 25 27 30 34 34 44 38 39 32 28 27 25 23 25 28 27 24 22 22 20 18 18 17 16 14 9 16 20 20
21 20 24 27 30 31 35 37 40 40 44 42 38 27 26 27 28 27 25 24 24 22 20 20 20 18 19 15 6 9 9 11
23 23 21 25 32 32 30 43 36 46 47 46 49 35 30 31 30 28 26 24 25 22 20 21 20 21 21 23 24 24 13 9
25 25 24 25 31 33 38 37 42 41 44 48 50 36 32 32 31 29 27 26 24 23 22 22 22 24 25 27 27 28 28 28
27 29 28 27 29 33 40 40 41 43 47 49 43 39 35 33 32 30 29 28 26 24 23 24 24 26 28 30 31 28 27 28
28 30 34 31 29 33 39 43 43 42 47 44 44 43 40 36 34 32 30 28 28 27 28 29 28 29 31 33 33 34 36 35
29 31 33 33 32 36 39 43 43 43 40 42 40 42 41 39 34 32 30 29 28 29 31 33 33 33 35 36 35 31 28 31

GFSFLT2_850_spd_084.txt.gz
Wind_Speed
18 22 22 22 26 27 21 17 18 15 8 34 34 31 32 33 32 30 28 24 25 24 23 22 22 22 21 22 23 24 19 19
17 26 25 24 30 35 22 17 16 19 21 26 27 26 33 35 34 31 27 27 27 25 24 22 22 22 22 22 20 25 18 18
15 22 26 28 34 35 34 24 25 27 29 32 32 32 35 35 34 29 30 29 27 26 23 22 22 22 23 22 20 16 17 15
10 21 15 26 34 30 33 29 28 29 34 35 39 37 40 34 32 32 31 29 26 25 23 23 22 22 22 20 14 15 14 15
9 16 15 24 26 26 27 32 24 25 30 50 50 45 43 34 35 34 32 29 28 25 24 20 17 17 19 12 15 14 13 13
12 13 19 19 22 23 27 28 26 25 28 33 54 50 46 38 32 35 34 31 29 26 21 17 17 15 14 14 14 12 12 12
12 13 16 18 21 21 25 26 25 26 27 47 55 46 41 40 38 36 35 30 27 22 18 17 18 16 14 14 13 13 14 12
12 12 12 13 14 18 24 17 23 28 48 47 48 45 39 40 39 37 33 31 23 21 21 18 16 14 14 13 12 13 13 13
14 12 12 11 12 15 19 24 39 51 45 43 41 37 39 40 38 35 30 27 25 22 20 18 15 14 13 13 11 11 11 13
13 13 11 10 12 13 20 30 44 44 44 41 41 42 41 39 35 30 27 25 23 21 21 16 15 13 13 11 11 11 11 12
14 13 12 12 15 16 29 37 38 39 39 41 43 39 35 32 29 25 23 23 20 20 17 15 15 13 12 11 11 11 11 12
14 14 12 16 18 24 32 40 45 45 37 35 34 33 31 28 28 27 28 24 22 21 18 16 15 13 11 10 10 11 12 13
17 16 15 19 21 30 34 45 47 42 39 37 38 37 41 40 37 30 26 24 22 18 15 15 18 14 10 9 12 14 16 14
17 18 19 21 25 26 35 40 48 44 45 40 36 36 38 33 31 32 27 23 22 21 20 19 16 17 11 8 8 11 18 20
22 19 21 25 25 29 27 39 43 41 43 38 44 33 34 36 32 27 23 24 27 23 21 20 15 16 18 11 8 11 8 11
23 23 23 26 26 31 32 43 50 45 45 47 43 36 34 33 32 27 31 31 28 24 22 21 18 16 17 22 22 13 12 9
25 24 24 27 30 30 33 39 50 45 43 46 44 35 30 31 31 29 28 29 27 22 23 24 22 19 18 15 18 20 19 20
26 27 27 28 31 33 33 41 43 44 46 47 51 43 31 29 26 30 29 28 26 26 25 24 24 23 21 20 21 17 18 19
27 29 29 29 30 33 33 34 44 48 49 52 56 42 33 25 32 32 30 30 30 26 26 26 26 27 26 24 23 25 23 27
29 30 31 29 30 33 33 34 34 41 44 50 45 42 41 29 32 32 32 30 29 28 28 28 28 29 30 28 28 27 32 34

GFSFLT2_850_spd_087.txt.gz
Wind_Speed
18 17 18 17 20 21 21 28 27 29 30 24 27 38 39 29 21 19 21 20 23 22 22 22 22 23 27 27 27 21 15 15
16 15 19 18 19 20 19 17 18 21 26 24 10 41 33 32 23 20 24 24 23 24 23 23 22 22 25 25 27 22 15 16
15 16 21 24 20 21 21 23 18 14 21 12 20 35 40 35 31 31 26 25 25 25 24 24 24 24 24 26 20 14 15 13
14 15 20 24 23 23 25 25 18 20 19 13 13 29 33 31 30 29 26 27 26 25 24 24 25 27 27 21 16 14 12 11
11 10 19 17 21 26 21 21 26 26 26 21 21 34 28 29 31 29 31 29 29 26 26 24 21 23 20 10 15 13 12 12
10 11 14 16 18 24 22 19 19 22 24 22 23 34 35 34 34 34 36 31 30 28 24 19 18 18 13 14 14 13 12 13
10 11 11 13 17 17 19 25 19 22 23 25 26 48 44 36 37 32 33 31 29 26 19 19 17 16 13 14 14 14 14 13
11 12 13 13 17 18 18 20 19 22 22 22 34 50 46 39 37 31 28 27 25 22 20 18 17 15 15 14 13 14 13 13
11 12 11 10 11 13 15 18 22 21 20 41 58 54 46 43 34 32 29 27 26 22 22 18 16 15 14 14 13 14 13 13
12 12 10 9 12 12 12 14 20 30 33 45 52 55 49 46 34 32 28 28 27 23 22 20 16 15 14 13 12 13 13 13
13 11 10 8 8 7 12 19 33 43 50 54 54 49 48 39 35 34 32 29 27 26 22 19 16 15 14 13 12 12 12 12
15 12 10 9 10 16 21 32 33 39 43 43 43 41 40 36 37 31 26 24 23 22 21 18 18 15 12 12 12 11 11 12
15 14 13 14 15 26 30 38 44 43 40 39 42 40 36 36 32 28 33 27 26 26 21 21 17 15 14 11 10 11 13 13
17 16 16 18 18 32 40 46 46 43 42 41 35 41 40 38 30 28 31 27 24 21 20 17 14 17 14 11 9 9 14 17
19 20 21 22 22 29 35 42 41 39 35 33 32 39 37 35 31 32 31 25 25 20 19 18 16 16 15 7 7 8 9 13
19 22 22 24 28 32 37 44 48 45 42 39 44 41 37 37 32 32 29 21 22 20 17 16 13 12 12 19 14 8 4 5
20 24 23 26 27 31 37 43 46 47 43 42 43 46 41 36 28 26 27 28 21 21 18 20 15 14 12 10 11 13 15 15
23 26 27 28 30 30 33 36 46 45 43 44 48 44 35 34 28 30 25 23 21 24 22 20 21 17 19 16 16 15 13 17
26 28 29 30 30 31 33 35 45 45 50 49 50 42 37 35 30 25 25 25 21 25 26 22 22 22 23 20 20 22 20 21
29 30 31 31 33 32 34 36 44 47 41 46 49 48 42 34 30 28 26 23 25 25 24 23 23 24 26 27 26 26 27 28